| time (UTC) | temp C | wind direction | speed KPH | gust KPH | rain 1hr cm | rain 24hr cm | rain mn cm | humidity % | barometer mb |
| 20260906053031 | 20 | 318 | 0.0 | 0.0 | 0.00 | 0.00 | 0.00 | 54 | 1012.8 |
| 20260906051526 | 20 | 318 | 0.0 | 0.0 | 0.00 | 0.00 | 0.00 | 54 | 1012.7 |
| 20260906050025 | 20 | 318 | 0.0 | 0.0 | 0.00 | 0.00 | 0.00 | 53 | 1012.7 |
| 20260906044525 | 20 | 318 | 0.0 | 0.0 | 0.00 | 0.00 | 0.00 | 52 | 1012.7 |
| 20260906043027 | 21 | 318 | 0.0 | 0.0 | 0.00 | 0.00 | 0.00 | 52 | 1012.7 |
| 20260906041529 | 21 | 318 | 0.0 | 0.0 | 0.00 | 0.00 | 0.00 | 51 | 1012.6 |
| 20260906040032 | 21 | 318 | 0.0 | 0.0 | 0.00 | 0.00 | 0.00 | 50 | 1012.5 |
| 20260906034528 | 21 | 314 | 0.0 | 0.0 | 0.00 | 0.00 | 0.00 | 49 | 1012.6 |
| 20260906033021 | 22 | 310 | 0.0 | 0.0 | 0.00 | 0.00 | 0.00 | 49 | 1012.4 |
| 20260906031534 | 22 | 330 | 0.0 | 1.6 | 0.00 | 0.00 | 0.00 | 47 | 1012.3 |
| 20260906030021 | 22 | 315 | 0.0 | 8.0 | 0.00 | 0.00 | 0.00 | 46 | 1012.2 |
| 20260906024620 | 23 | 294 | 0.0 | 4.8 | 0.00 | 0.00 | 0.00 | 45 | 1012.1 |
| 20260906023019 | 23 | 303 | 0.0 | 1.6 | 0.00 | 0.00 | 0.00 | 44 | 1012.0 |
| 20260906021521 | 24 | 304 | 0.0 | 9.7 | 0.00 | 0.00 | 0.00 | 43 | 1012.0 |
| 20260906020018 | 24 | 295 | 0.0 | 0.0 | 0.00 | 0.00 | 0.00 | 41 | 1012.1 |
| 20260906014523 | 25 | 290 | 0.0 | 0.0 | 0.00 | 0.00 | 0.00 | 40 | 1012.1 |
| 20260906013017 | 25 | 305 | 0.0 | 1.6 | 0.00 | 0.00 | 0.00 | 39 | 1012.2 |
| 20260906011516 | 26 | 313 | 0.0 | 14.5 | 0.00 | 0.00 | 0.00 | 38 | 1012.2 |
| 20260906010015 | 26 | 316 | 0.0 | 16.1 | 0.00 | 0.00 | 0.00 | 38 | 1012.2 |
| 20260906004514 | 27 | 296 | 0.0 | 19.3 | 0.00 | 0.00 | 0.00 | 39 | 1012.1 |
| 20260906003014 | 27 | 205 | 0.0 | 4.8 | 0.00 | 0.00 | 0.00 | 40 | 1012.2 |
| 20260906001512 | 27 | 290 | 0.0 | 12.9 | 0.00 | 0.00 | 0.00 | 38 | 1012.1 |
| 20260906000011 | 27 | 216 | 0.0 | 12.9 | 0.00 | 0.00 | 0.00 | 37 | 1012.2 |
| 20260905234509 | 28 | 33 | 0.0 | 9.7 | 0.00 | 0.00 | 0.00 | 35 | 1012.1 |
| 20260905233008 | 28 | 304 | 0.0 | 1.6 | 0.00 | 0.00 | 0.00 | 35 | 1012.4 |
| 20260905231508 | 28 | 223 | 0.0 | 8.0 | 0.00 | 0.00 | 0.00 | 34 | 1012.4 |
| 20260905230007 | 28 | 312 | 0.0 | 16.1 | 0.00 | 0.00 | 0.00 | 33 | 1012.3 |
| 20260905224506 | 28 | 285 | 0.0 | 6.4 | 0.00 | 0.00 | 0.00 | 32 | 1012.4 |
| 20260905223005 | 29 | 312 | 3.2 | 12.9 | 0.00 | 0.00 | 0.00 | 31 | 1012.4 |
| 20260905221503 | 29 | 295 | 4.8 | 24.1 | 0.00 | 0.00 | 0.00 | 32 | 1012.4 |
| 20260905220002 | 28 | 211 | 8.0 | 22.5 | 0.00 | 0.00 | 0.00 | 33 | 1012.7 |
| 20260905214501 | 28 | 311 | 1.6 | 17.7 | 0.00 | 0.00 | 0.00 | 33 | 1012.7 |
| 20260905213104 | 28 | 289 | 0.0 | 12.9 | 0.00 | 0.00 | 0.00 | 33 | 1012.9 |
| 20260905211559 | 28 | 342 | 0.0 | 14.5 | 0.00 | 0.00 | 0.00 | 32 | 1013.1 |
| 20260905210107 | 28 | 261 | 0.0 | 17.7 | 0.00 | 0.00 | 0.00 | 31 | 1013.0 |
| 20260905204556 | 28 | 306 | 0.0 | 14.5 | 0.00 | 0.00 | 0.00 | 30 | 1013.1 |
| 20260905203058 | 29 | 291 | 0.0 | 9.7 | 0.00 | 0.00 | 0.00 | 29 | 1013.2 |
| 20260905201553 | 30 | 270 | 0.0 | 16.1 | 0.00 | 0.00 | 0.00 | 28 | 1013.3 |
| 20260905200107 | 30 | 198 | 0.0 | 6.4 | 0.00 | 0.00 | 0.00 | 28 | 1013.3 |
| 20260905194549 | 30 | 192 | 0.0 | 0.0 | 0.00 | 0.00 | 0.00 | 27 | 1013.3 |
| 20260905193046 | 29 | 282 | 4.8 | 20.9 | 0.00 | 0.00 | 0.00 | 26 | 1013.6 |
| 20260905191546 | 29 | 304 | 3.2 | 19.3 | 0.00 | 0.00 | 0.00 | 25 | 1013.9 |
| 20260905190051 | 30 | 321 | 4.8 | 19.3 | 0.00 | 0.00 | 0.00 | 24 | 1013.9 |
| 20260905184541 | 29 | 309 | 0.0 | 0.0 | 0.00 | 0.00 | 0.00 | 29 | 1013.9 |
| 20260905183038 | 28 | 220 | 0.0 | 11.3 | 0.00 | 0.00 | 0.00 | 31 | 1014.1 |
| 20260905181536 | 28 | 238 | 0.0 | 3.2 | 0.00 | 0.00 | 0.00 | 33 | 1014.1 |
| 20260905180047 | 28 | 271 | 0.0 | 6.4 | 0.00 | 0.00 | 0.00 | 33 | 1014.2 |
| 20260905174529 | 27 | 234 | 0.0 | 4.8 | 0.00 | 0.00 | 0.00 | 32 | 1014.1 |
| 20260905173027 | 27 | 318 | 1.6 | 8.0 | 0.00 | 0.00 | 0.00 | 33 | 1014.1 |
| 20260905171530 | 26 | 230 | 0.0 | 11.3 | 0.00 | 0.00 | 0.00 | 32 | 1013.8 |
| 20260905170024 | 26 | 239 | 0.0 | 6.4 | 0.00 | 0.00 | 0.00 | 34 | 1013.7 |
| 20260905164523 | 26 | 247 | 0.0 | 11.3 | 0.00 | 0.00 | 0.00 | 32 | 1013.6 |
| 20260905163019 | 26 | 228 | 0.0 | 9.7 | 0.00 | 0.00 | 0.00 | 31 | 1013.6 |
| 20260905161523 | 24 | 166 | 0.0 | 3.2 | 0.00 | 0.00 | 0.00 | 30 | 1013.6 |
| 20260905160010 | 22 | 158 | 0.0 | 0.0 | 0.00 | 0.00 | 0.00 | 31 | 1013.6 |
| 20260905154506 | 20 | 150 | 0.0 | 4.8 | 0.00 | 0.00 | 0.00 | 36 | 1013.7 |
| 20260905153002 | 18 | 160 | 0.0 | 0.0 | 0.00 | 0.00 | 0.00 | 41 | 1013.8 |
| 20260905151558 | 16 | 144 | 0.0 | 0.0 | 0.00 | 0.00 | 0.00 | 44 | 1013.9 |
| 20260905150053 | 15 | 163 | 0.0 | 0.0 | 0.00 | 0.00 | 0.00 | 46 | 1013.6 |
| 20260905144549 | 14 | 161 | 0.0 | 0.0 | 0.00 | 0.00 | 0.00 | 47 | 1013.5 |
| 20260905143047 | 14 | 163 | 0.0 | 0.0 | 0.00 | 0.00 | 0.00 | 44 | 1013.4 |
| 20260905141546 | 14 | 163 | 0.0 | 0.0 | 0.00 | 0.00 | 0.00 | 43 | 1013.2 |
| 20260905140047 | 14 | 163 | 0.0 | 0.0 | 0.00 | 0.00 | 0.00 | 41 | 1012.9 |
| 20260905134552 | 13 | 163 | 0.0 | 0.0 | 0.00 | 0.00 | 0.00 | 40 | 1012.7 |
| 20260905133048 | 13 | 163 | 0.0 | 0.0 | 0.00 | 0.00 | 0.00 | 41 | 1012.5 |
| 20260905131544 | 13 | 163 | 0.0 | 0.0 | 0.00 | 0.00 | 0.00 | 41 | 1012.5 |
| 20260905130041 | 13 | 163 | 0.0 | 0.0 | 0.00 | 0.00 | 0.00 | 41 | 1012.4 |
| 20260905124544 | 13 | 163 | 0.0 | 0.0 | 0.00 | 0.00 | 0.00 | 42 | 1012.3 |
| 20260905123041 | 13 | 163 | 0.0 | 0.0 | 0.00 | 0.00 | 0.00 | 40 | 1012.3 |
| 20260905121544 | 13 | 163 | 0.0 | 0.0 | 0.00 | 0.00 | 0.00 | 39 | 1012.3 |
| 20260905120052 | 13 | 163 | 0.0 | 0.0 | 0.00 | 0.00 | 0.00 | 39 | 1012.4 |
| 20260905114550 | 14 | 163 | 0.0 | 0.0 | 0.00 | 0.00 | 0.00 | 40 | 1012.3 |
| 20260905113046 | 14 | 163 | 0.0 | 0.0 | 0.00 | 0.00 | 0.00 | 41 | 1012.5 |
| 20260905111609 | 14 | 163 | 0.0 | 0.0 | 0.00 | 0.00 | 0.00 | 42 | 1012.4 |
| 20260905110033 | 13 | 163 | 0.0 | 0.0 | 0.00 | 0.00 | 0.00 | 42 | 1012.8 |
| 20260905104531 | 13 | 163 | 0.0 | 0.0 | 0.00 | 0.00 | 0.00 | 42 | 1012.8 |
| 20260905103035 | 13 | 163 | 0.0 | 0.0 | 0.00 | 0.00 | 0.00 | 39 | 1012.9 |
| 20260905101529 | 13 | 163 | 0.0 | 0.0 | 0.00 | 0.00 | 0.00 | 36 | 1012.8 |
| 20260905100027 | 13 | 163 | 0.0 | 1.6 | 0.00 | 0.00 | 0.00 | 35 | 1012.9 |
| 20260905094526 | 13 | 163 | 0.0 | 4.8 | 0.00 | 0.00 | 0.00 | 35 | 1013.1 |
| 20260905093024 | 12 | 170 | 0.0 | 0.0 | 0.00 | 0.00 | 0.00 | 37 | 1013.1 |
| 20260905091520 | 12 | 96 | 0.0 | 0.0 | 0.00 | 0.00 | 0.00 | 38 | 1013.0 |
| 20260905090018 | 12 | 95 | 0.0 | 0.0 | 0.00 | 0.00 | 0.00 | 40 | 1013.1 |
| 20260905084517 | 12 | 94 | 0.0 | 0.0 | 0.00 | 0.00 | 0.00 | 41 | 1013.3 |
| 20260905083015 | 12 | 94 | 0.0 | 0.0 | 0.00 | 0.00 | 0.00 | 42 | 1013.4 |
| 20260905081512 | 12 | 94 | 0.0 | 0.0 | 0.00 | 0.00 | 0.00 | 45 | 1013.4 |
| 20260905080011 | 12 | 94 | 0.0 | 0.0 | 0.00 | 0.00 | 0.00 | 47 | 1013.4 |
| 20260905074510 | 12 | 94 | 0.0 | 0.0 | 0.00 | 0.00 | 0.00 | 48 | 1013.6 |
| 20260905073008 | 12 | 94 | 0.0 | 0.0 | 0.00 | 0.00 | 0.00 | 49 | 1013.6 |
| 20260905071505 | 12 | 94 | 0.0 | 0.0 | 0.00 | 0.00 | 0.00 | 48 | 1013.3 |
| 20260905070007 | 12 | 94 | 0.0 | 0.0 | 0.00 | 0.00 | 0.00 | 47 | 1013.4 |
| 20260905064510 | 12 | 94 | 0.0 | 0.0 | 0.00 | 0.00 | 0.00 | 47 | 1013.0 |
| 20260905063003 | 12 | 94 | 0.0 | 0.0 | 0.00 | 0.00 | 0.00 | 49 | 1013.1 |
| 20260905061502 | 13 | 94 | 0.0 | 0.0 | 0.00 | 0.00 | 0.00 | 50 | 1013.0 |
| 20260905060001 | 13 | 94 | 0.0 | 0.0 | 0.00 | 0.00 | 0.00 | 52 | 1013.0 |
| 20260905054506 | 13 | 94 | 0.0 | 0.0 | 0.00 | 0.00 | 0.00 | 52 | 1012.9 |